iso_date,epoch_date,Year,Hour,Min,DOY,POS_DOY,Lat,Lon,BP,Ts,Ta,has_bp,has_ts,has_ta,BuoyID,Buoy_Type,Buoy_Owner,Logistics,Hemisphere
2018-04-13T02:19:40Z,1523585981,2018,2,19,103.097,103.097,78.21784,15.65304,-999.00,-999.00,-999.0,no,no,no,300234066830700,IT,USIABP,Daniels,North
2018-04-13T04:00:28Z,1523592029,2018,4,0,103.167,103.167,78.21785,15.65309,-999.00,-999.00,-999.0,no,no,no,300234066830700,IT,USIABP,Daniels,North
2018-04-13T04:59:31Z,1523595571,2018,5,0,103.208,103.208,78.21786,15.65306,-999.00,-999.00,-999.0,no,no,no,300234066830700,IT,USIABP,Daniels,North
2018-04-13T07:00:28Z,1523602829,2018,7,0,103.292,103.292,78.21818,15.65068,-999.00,-999.00,-999.0,no,no,no,300234066830700,IT,USIABP,Daniels,North
2018-04-15T09:24:28Z,1523784269,2018,9,24,105.392,105.392,89.33209,135.61803,-999.00,-999.00,-999.0,no,no,no,300234066830700,IT,USIABP,Daniels,North
2018-04-15T10:00:28Z,1523786429,2018,10,0,105.417,105.417,89.34215,135.49956,-999.00,-999.00,-999.0,no,no,no,300234066830700,IT,USIABP,Daniels,North
2018-04-15T10:59:31Z,1523789971,2018,11,0,105.458,105.458,89.35516,135.24705,-999.00,-999.00,-999.0,no,no,no,300234066830700,IT,USIABP,Daniels,North
2018-04-15T13:00:28Z,1523797229,2018,13,0,105.542,105.542,89.37365,134.87277,-999.00,-999.00,-999.0,no,no,no,300234066830700,IT,USIABP,Daniels,North
2018-04-15T13:59:31Z,1523800771,2018,14,0,105.583,105.583,89.37348,134.74497,-999.00,-999.00,-999.0,no,no,no,300234066830700,IT,USIABP,Daniels,North
2018-04-15T16:00:28Z,1523808029,2018,16,0,105.667,105.667,89.37292,134.53647,-999.00,-999.00,-999.0,no,no,no,300234066830700,IT,USIABP,Daniels,North
2018-04-15T16:59:31Z,1523811571,2018,17,0,105.708,105.708,89.37283,134.45256,-999.00,-999.00,-999.0,no,no,no,300234066830700,IT,USIABP,Daniels,North
2018-04-15T18:00:00Z,1523815200,2018,18,0,105.75,105.75,89.37273,134.37517,-999.00,-999.00,-999.0,no,no,no,300234066830700,IT,USIABP,Daniels,North
2018-04-15T19:00:28Z,1523818829,2018,19,0,105.792,105.792,89.3725,134.30545,-999.00,-999.00,-999.0,no,no,no,300234066830700,IT,USIABP,Daniels,North
2018-04-15T19:59:31Z,1523822371,2018,20,0,105.833,105.833,89.37234,134.24341,-999.00,-999.00,-999.0,no,no,no,300234066830700,IT,USIABP,Daniels,North
2018-04-15T21:00:00Z,1523826000,2018,21,0,105.875,105.875,89.37221,134.18109,-999.00,-999.00,-999.0,no,no,no,300234066830700,IT,USIABP,Daniels,North
2018-04-15T22:00:28Z,1523829629,2018,22,0,105.917,105.917,89.37209,134.11546,-999.00,-999.00,-999.0,no,no,no,300234066830700,IT,USIABP,Daniels,North
2018-04-15T22:59:31Z,1523833171,2018,23,0,105.958,105.958,89.37194,134.05884,-999.00,-999.00,-999.0,no,no,no,300234066830700,IT,USIABP,Daniels,North
2018-04-16T01:00:28Z,1523840429,2018,1,0,106.042,106.042,89.37165,133.98233,-999.00,-999.00,-999.0,no,no,no,300234066830700,IT,USIABP,Daniels,North
2018-04-16T01:59:31Z,1523843971,2018,2,0,106.083,106.083,89.37145,133.96268,-999.00,-999.00,-999.0,no,no,no,300234066830700,IT,USIABP,Daniels,North
2018-04-16T04:00:28Z,1523851229,2018,4,0,106.167,106.167,89.37119,133.95387,-999.00,-999.00,-999.0,no,no,no,300234066830700,IT,USIABP,Daniels,North
2018-04-16T04:59:31Z,1523854771,2018,5,0,106.208,106.208,89.37108,133.95366,-999.00,-999.00,-999.0,no,no,no,300234066830700,IT,USIABP,Daniels,North
2018-04-16T07:00:28Z,1523862029,2018,7,0,106.292,106.292,89.37152,133.94244,-999.00,-999.00,-999.0,no,no,no,300234066830700,IT,USIABP,Daniels,North
2018-04-16T07:59:31Z,1523865571,2018,8,0,106.333,106.333,89.3782,134.25093,-999.00,-999.00,-999.0,no,no,no,300234066830700,IT,USIABP,Daniels,North
2018-04-16T10:00:28Z,1523872829,2018,10,0,106.417,106.417,89.38075,134.26302,-999.00,-999.00,-999.0,no,no,no,300234066830700,IT,USIABP,Daniels,North
2018-04-16T10:59:31Z,1523876371,2018,11,0,106.458,106.458,89.38129,134.18262,-999.00,-999.00,-999.0,no,no,no,300234066830700,IT,USIABP,Daniels,North
2018-04-16T13:00:28Z,1523883629,2018,13,0,106.542,106.542,89.38605,134.11029,-999.00,-999.00,-999.0,no,no,no,300234066830700,IT,USIABP,Daniels,North
2018-04-16T13:59:31Z,1523887171,2018,14,0,106.583,106.583,89.40106,134.35474,-999.00,-999.00,-999.0,no,no,no,300234066830700,IT,USIABP,Daniels,North
2018-04-16T16:00:28Z,1523894429,2018,16,0,106.667,106.667,89.42219,134.44951,-999.00,-999.00,-999.0,no,no,no,300234066830700,IT,USIABP,Daniels,North
2018-04-16T16:59:31Z,1523897971,2018,17,0,106.708,106.708,89.43506,134.30075,-999.00,-999.00,-999.0,no,no,no,300234066830700,IT,USIABP,Daniels,North
2018-04-16T19:00:28Z,1523905229,2018,19,0,106.792,106.792,89.45617,134.49629,-999.00,-999.00,-999.0,no,no,no,300234066830700,IT,USIABP,Daniels,North
2018-04-16T19:59:31Z,1523908771,2018,20,0,106.833,106.833,89.46399,134.77406,-999.00,-999.00,-999.0,no,no,no,300234066830700,IT,USIABP,Daniels,North
2018-04-16T21:00:00Z,1523912400,2018,21,0,106.875,106.875,89.46551,134.5775,-999.00,-999.00,-999.0,no,no,no,300234066830700,IT,USIABP,Daniels,North
2018-04-16T22:00:28Z,1523916029,2018,22,0,106.917,106.917,89.46688,134.37131,-999.00,-999.00,-999.0,no,no,no,300234066830700,IT,USIABP,Daniels,North
2018-04-16T22:59:31Z,1523919571,2018,23,0,106.958,106.958,89.4686,134.15741,-999.00,-999.00,-999.0,no,no,no,300234066830700,IT,USIABP,Daniels,North
2018-04-17T01:00:28Z,1523926829,2018,1,0,107.042,107.042,89.47269,133.7886,-999.00,-999.00,-999.0,no,no,no,300234066830700,IT,USIABP,Daniels,North
2018-04-17T01:59:31Z,1523930371,2018,2,0,107.083,107.083,89.47442,133.67232,-999.00,-999.00,-999.0,no,no,no,300234066830700,IT,USIABP,Daniels,North
2018-04-17T03:00:00Z,1523934000,2018,3,0,107.125,107.125,89.47575,133.56108,-999.00,-999.00,-999.0,no,no,no,300234066830700,IT,USIABP,Daniels,North
2018-04-17T04:00:28Z,1523937629,2018,4,0,107.167,107.167,89.47694,133.46776,-999.00,-999.00,-999.0,no,no,no,300234066830700,IT,USIABP,Daniels,North
2018-04-17T04:59:31Z,1523941171,2018,5,0,107.208,107.208,89.47815,133.38629,-999.00,-999.00,-999.0,no,no,no,300234066830700,IT,USIABP,Daniels,North
2018-04-17T06:00:00Z,1523944800,2018,6,0,107.25,107.25,89.47938,133.30005,-999.00,-999.00,-999.0,no,no,no,300234066830700,IT,USIABP,Daniels,North
2018-04-17T07:00:28Z,1523948429,2018,7,0,107.292,107.292,89.48067,133.18564,-999.00,-999.00,-999.0,no,no,no,300234066830700,IT,USIABP,Daniels,North
2018-04-17T07:59:31Z,1523951971,2018,8,0,107.333,107.333,89.48193,133.0495,-999.00,-999.00,-999.0,no,no,no,300234066830700,IT,USIABP,Daniels,North
2018-04-17T09:00:00Z,1523955600,2018,9,0,107.375,107.375,89.49622,133.19634,-999.00,-999.00,-999.0,no,no,no,300234066830700,IT,USIABP,Daniels,North
2018-04-17T10:00:28Z,1523959229,2018,10,0,107.417,107.417,89.50834,133.30905,-999.00,-999.00,-999.0,no,no,no,300234066830700,IT,USIABP,Daniels,North
2018-04-17T10:59:31Z,1523962771,2018,11,0,107.458,107.458,89.52536,133.54137,-999.00,-999.00,-999.0,no,no,no,300234066830700,IT,USIABP,Daniels,North
2018-04-17T13:00:28Z,1523970029,2018,13,0,107.542,107.542,89.54906,133.08543,-999.00,-999.00,-999.0,no,no,no,300234066830700,IT,USIABP,Daniels,North
2018-04-17T13:59:31Z,1523973571,2018,14,0,107.583,107.583,89.56738,132.91545,-999.00,-999.00,-999.0,no,no,no,300234066830700,IT,USIABP,Daniels,North
2018-04-17T15:00:00Z,1523977200,2018,15,0,107.625,107.625,89.57385,133.05278,-999.00,-999.00,-999.0,no,no,no,300234066830700,IT,USIABP,Daniels,North
2018-04-17T16:00:28Z,1523980829,2018,16,0,107.667,107.667,89.57518,132.88718,-999.00,-999.00,-999.0,no,no,no,300234066830700,IT,USIABP,Daniels,North
2018-04-17T16:59:31Z,1523984371,2018,17,0,107.708,107.708,89.57652,132.7119,-999.00,-999.00,-999.0,no,no,no,300234066830700,IT,USIABP,Daniels,North
2018-04-17T18:00:00Z,1523988000,2018,18,0,107.75,107.75,89.57797,132.51205,-999.00,-999.00,-999.0,no,no,no,300234066830700,IT,USIABP,Daniels,North
2018-04-17T19:00:28Z,1523991629,2018,19,0,107.792,107.792,89.57965,132.28572,-999.00,-999.00,-999.0,no,no,no,300234066830700,IT,USIABP,Daniels,North
2018-04-17T19:59:31Z,1523995171,2018,20,0,107.833,107.833,89.58148,132.04215,-999.00,-999.00,-999.0,no,no,no,300234066830700,IT,USIABP,Daniels,North
2018-04-17T22:00:28Z,1524002429,2018,22,0,107.917,107.917,89.58595,131.47797,-999.00,-999.00,-999.0,no,no,no,300234066830700,IT,USIABP,Daniels,North
2018-04-17T22:59:31Z,1524005971,2018,23,0,107.958,107.958,89.58828,131.20042,-999.00,-999.00,-999.0,no,no,no,300234066830700,IT,USIABP,Daniels,North
2018-04-18T00:00:00Z,1524009600,2018,0,0,108.0,108.0,89.59049,130.93056,-999.00,-999.00,-999.0,no,no,no,300234066830700,IT,USIABP,Daniels,North
2018-04-18T01:00:28Z,1524013229,2018,1,0,108.042,108.042,89.59453,130.9666,-999.00,-999.00,-999.0,no,no,no,300234066830700,IT,USIABP,Daniels,North
2018-04-18T01:59:31Z,1524016771,2018,2,0,108.083,108.083,89.59431,130.37376,-999.00,-999.00,-999.0,no,no,no,300234066830700,IT,USIABP,Daniels,North
2018-04-18T03:00:00Z,1524020400,2018,3,0,108.125,108.125,89.59595,130.08977,-999.00,-999.00,-999.0,no,no,no,300234066830700,IT,USIABP,Daniels,North
2018-04-18T04:00:28Z,1524024029,2018,4,0,108.167,108.167,89.59739,129.79375,-999.00,-999.00,-999.0,no,no,no,300234066830700,IT,USIABP,Daniels,North
2018-04-18T04:59:31Z,1524027571,2018,5,0,108.208,108.208,89.59888,129.49042,-999.00,-999.00,-999.0,no,no,no,300234066830700,IT,USIABP,Daniels,North
2018-04-18T06:00:00Z,1524031200,2018,6,0,108.25,108.25,89.60043,129.1824,-999.00,-999.00,-999.0,no,no,no,300234066830700,IT,USIABP,Daniels,North
2018-04-18T07:00:28Z,1524034829,2018,7,0,108.292,108.292,89.60215,128.86099,-999.00,-999.00,-999.0,no,no,no,300234066830700,IT,USIABP,Daniels,North
2018-04-18T07:59:31Z,1524038371,2018,8,0,108.333,108.333,89.60476,128.50763,-999.00,-999.00,-999.0,no,no,no,300234066830700,IT,USIABP,Daniels,North
2018-04-18T10:00:28Z,1524045629,2018,10,0,108.417,108.417,89.60801,129.18839,-999.00,-999.00,-999.0,no,no,no,300234066830700,IT,USIABP,Daniels,North
2018-04-18T10:59:31Z,1524049171,2018,11,0,108.458,108.458,89.62186,128.50154,-999.00,-999.00,-999.0,no,no,no,300234066830700,IT,USIABP,Daniels,North
2018-04-18T12:00:00Z,1524052800,2018,12,0,108.5,108.5,89.63637,128.36774,-999.00,-999.00,-999.0,no,no,no,300234066830700,IT,USIABP,Daniels,North
2018-04-18T13:00:28Z,1524056429,2018,13,0,108.542,108.542,89.65572,128.321,-999.00,-999.00,-999.0,no,no,no,300234066830700,IT,USIABP,Daniels,North
2018-04-18T13:59:31Z,1524059971,2018,14,0,108.583,108.583,89.6686,128.26009,-999.00,-999.00,-999.0,no,no,no,300234066830700,IT,USIABP,Daniels,North
2018-04-18T16:00:28Z,1524067229,2018,16,0,108.667,108.667,89.68555,127.85323,-999.00,-999.00,-999.0,no,no,no,300234066830700,IT,USIABP,Daniels,North
2018-04-18T16:59:31Z,1524070771,2018,17,0,108.708,108.708,89.68704,127.37256,-999.00,-999.00,-999.0,no,no,no,300234066830700,IT,USIABP,Daniels,North
2018-04-18T19:00:28Z,1524078029,2018,19,0,108.792,108.792,89.6895,126.1478,-999.00,-999.00,-999.0,no,no,no,300234066830700,IT,USIABP,Daniels,North
2018-04-18T19:59:31Z,1524081571,2018,20,0,108.833,108.833,89.69092,125.44611,-999.00,-999.00,-999.0,no,no,no,300234066830700,IT,USIABP,Daniels,North
2018-04-18T22:00:28Z,1524088829,2018,22,0,108.917,108.917,89.69441,124.09754,-999.00,-999.00,-999.0,no,no,no,300234066830700,IT,USIABP,Daniels,North
2018-04-18T22:59:31Z,1524092371,2018,23,0,108.958,108.958,89.69629,123.55106,-999.00,-999.00,-999.0,no,no,no,300234066830700,IT,USIABP,Daniels,North
2018-04-19T01:00:28Z,1524099629,2018,1,0,109.042,109.042,89.70034,122.66756,-999.00,-999.00,-999.0,no,no,no,300234066830700,IT,USIABP,Daniels,North
2018-04-19T01:59:31Z,1524103171,2018,2,0,109.083,109.083,89.70223,122.27584,-999.00,-999.00,-999.0,no,no,no,300234066830700,IT,USIABP,Daniels,North
2018-04-19T04:00:28Z,1524110429,2018,4,0,109.167,109.167,89.70551,121.54208,-999.00,-999.00,-999.0,no,no,no,300234066830700,IT,USIABP,Daniels,North
2018-04-19T04:59:31Z,1524113971,2018,5,0,109.208,109.208,89.70691,121.14586,-999.00,-999.00,-999.0,no,no,no,300234066830700,IT,USIABP,Daniels,North
2018-04-19T07:00:28Z,1524121229,2018,7,0,109.292,109.292,89.70978,120.31705,-999.00,-999.00,-999.0,no,no,no,300234066830700,IT,USIABP,Daniels,North
2018-04-19T07:59:31Z,1524124771,2018,8,0,109.333,109.333,89.71195,119.89713,-999.00,-999.00,-999.0,no,no,no,300234066830700,IT,USIABP,Daniels,North
2018-04-19T09:00:00Z,1524128400,2018,9,0,109.375,109.375,89.73019,120.32539,-999.00,-999.00,-999.0,no,no,no,300234066830700,IT,USIABP,Daniels,North
2018-04-19T10:00:28Z,1524132029,2018,10,0,109.417,109.417,89.74371,121.44614,-999.00,-999.00,-999.0,no,no,no,300234066830700,IT,USIABP,Daniels,North
2018-04-19T10:59:31Z,1524135571,2018,11,0,109.458,109.458,89.75567,122.01494,-999.00,-999.00,-999.0,no,no,no,300234066830700,IT,USIABP,Daniels,North
2018-04-19T13:00:28Z,1524142829,2018,13,0,109.542,109.542,89.78539,122.48023,-999.00,-999.00,-999.0,no,no,no,300234066830700,IT,USIABP,Daniels,North
2018-04-19T13:59:31Z,1524146371,2018,14,0,109.583,109.583,89.80093,122.90732,-999.00,-999.00,-999.0,no,no,no,300234066830700,IT,USIABP,Daniels,North
2018-04-19T15:00:00Z,1524150000,2018,15,0,109.625,109.625,89.81445,123.81454,-999.00,-999.00,-999.0,no,no,no,300234066830700,IT,USIABP,Daniels,North
2018-04-19T16:00:28Z,1524153629,2018,16,0,109.667,109.667,89.81551,123.3517,-999.00,-999.00,-999.0,no,no,no,300234066830700,IT,USIABP,Daniels,North
2018-04-19T16:59:31Z,1524157171,2018,17,0,109.708,109.708,89.81626,122.688,-999.00,-999.00,-999.0,no,no,no,300234066830700,IT,USIABP,Daniels,North
2018-04-19T18:00:00Z,1524160800,2018,18,0,109.75,109.75,89.81692,122.01733,-999.00,-999.00,-999.0,no,no,no,300234066830700,IT,USIABP,Daniels,North
2018-04-19T19:00:28Z,1524164429,2018,19,0,109.792,109.792,89.81761,121.34647,-999.00,-999.00,-999.0,no,no,no,300234066830700,IT,USIABP,Daniels,North
2018-04-19T19:59:31Z,1524167971,2018,20,0,109.833,109.833,89.8184,120.6302,-999.00,-999.00,-999.0,no,no,no,300234066830700,IT,USIABP,Daniels,North
2018-04-19T22:00:28Z,1524175229,2018,22,0,109.917,109.917,89.82056,119.19347,-999.00,-999.00,-999.0,no,no,no,300234066830700,IT,USIABP,Daniels,North
2018-04-19T22:59:31Z,1524178771,2018,23,0,109.958,109.958,89.82198,118.51421,-999.00,-999.00,-999.0,no,no,no,300234066830700,IT,USIABP,Daniels,North
2018-04-20T00:00:00Z,1524182400,2018,0,0,110.0,110.0,89.82352,117.89362,-999.00,-999.00,-999.0,no,no,no,300234066830700,IT,USIABP,Daniels,North
2018-04-20T01:00:28Z,1524186029,2018,1,0,110.042,110.042,89.825,117.30019,-999.00,-999.00,-999.0,no,no,no,300234066830700,IT,USIABP,Daniels,North
2018-04-20T01:59:31Z,1524189571,2018,2,0,110.083,110.083,89.82641,116.73914,-999.00,-999.00,-999.0,no,no,no,300234066830700,IT,USIABP,Daniels,North
2018-04-20T04:00:28Z,1524196829,2018,4,0,110.167,110.167,89.82847,115.76616,-999.00,-999.00,-999.0,no,no,no,300234066830700,IT,USIABP,Daniels,North
2018-04-20T04:59:31Z,1524200371,2018,5,0,110.208,110.208,89.82936,115.33698,-999.00,-999.00,-999.0,no,no,no,300234066830700,IT,USIABP,Daniels,North
2018-04-20T07:00:28Z,1524207629,2018,7,0,110.292,110.292,89.83095,114.44807,-999.00,-999.00,-999.0,no,no,no,300234066830700,IT,USIABP,Daniels,North
2018-04-20T07:59:31Z,1524211171,2018,8,0,110.333,110.333,89.8354,114.53832,-999.00,-999.00,-999.0,no,no,no,300234066830700,IT,USIABP,Daniels,North
2018-04-20T10:00:28Z,1524218429,2018,10,0,110.417,110.417,89.86073,117.73915,-999.00,-999.00,-999.0,no,no,no,300234066830700,IT,USIABP,Daniels,North
2018-04-20T10:59:31Z,1524221971,2018,11,0,110.458,110.458,89.85796,118.89784,-999.00,-999.00,-999.0,no,no,no,300234066830700,IT,USIABP,Daniels,North
2018-04-20T12:00:00Z,1524225600,2018,12,0,110.5,110.5,89.85706,120.5175,-999.00,-999.00,-999.0,no,no,no,300234066830700,IT,USIABP,Daniels,North
2018-04-20T13:00:28Z,1524229229,2018,13,0,110.542,110.542,89.86089,120.11369,-999.00,-999.00,-999.0,no,no,no,300234066830700,IT,USIABP,Daniels,North
2018-04-20T13:59:31Z,1524232771,2018,14,0,110.583,110.583,89.8649,118.60448,-999.00,-999.00,-999.0,no,no,no,300234066830700,IT,USIABP,Daniels,North
2018-04-20T16:00:28Z,1524240029,2018,16,0,110.667,110.667,89.87386,117.35568,-999.00,-999.00,-999.0,no,no,no,300234066830700,IT,USIABP,Daniels,North
2018-04-20T16:59:31Z,1524243571,2018,17,0,110.708,110.708,89.88612,117.68565,-999.00,-999.00,-999.0,no,no,no,300234066830700,IT,USIABP,Daniels,North
2018-04-20T19:00:28Z,1524250829,2018,19,0,110.792,110.792,89.88829,117.02173,-999.00,-999.00,-999.0,no,no,no,300234066830700,IT,USIABP,Daniels,North
2018-04-20T19:59:31Z,1524254371,2018,20,0,110.833,110.833,89.88944,116.66419,-999.00,-999.00,-999.0,no,no,no,300234066830700,IT,USIABP,Daniels,North
2018-04-20T21:00:00Z,1524258000,2018,21,0,110.875,110.875,89.89069,116.28073,-999.00,-999.00,-999.0,no,no,no,300234066830700,IT,USIABP,Daniels,North
2018-04-20T22:00:28Z,1524261629,2018,22,0,110.917,110.917,89.89204,115.92733,-999.00,-999.00,-999.0,no,no,no,300234066830700,IT,USIABP,Daniels,North
2018-04-20T22:59:31Z,1524265171,2018,23,0,110.958,110.958,89.89346,115.60091,-999.00,-999.00,-999.0,no,no,no,300234066830700,IT,USIABP,Daniels,North
2018-04-21T00:00:00Z,1524268800,2018,0,0,111.0,111.0,89.89484,115.28666,-999.00,-999.00,-999.0,no,no,no,300234066830700,IT,USIABP,Daniels,North
2018-04-21T01:00:28Z,1524272429,2018,1,0,111.042,111.042,89.89606,115.02454,-999.00,-999.00,-999.0,no,no,no,300234066830700,IT,USIABP,Daniels,North
2018-04-21T01:59:31Z,1524275971,2018,2,0,111.083,111.083,89.89696,114.82292,-999.00,-999.00,-999.0,no,no,no,300234066830700,IT,USIABP,Daniels,North
2018-04-21T03:00:00Z,1524279600,2018,3,0,111.125,111.125,89.89751,114.67773,-999.00,-999.00,-999.0,no,no,no,300234066830700,IT,USIABP,Daniels,North
2018-04-21T04:00:28Z,1524283229,2018,4,0,111.167,111.167,89.89791,114.58915,-999.00,-999.00,-999.0,no,no,no,300234066830700,IT,USIABP,Daniels,North
2018-04-21T04:59:31Z,1524286771,2018,5,0,111.208,111.208,89.89829,114.53993,-999.00,-999.00,-999.0,no,no,no,300234066830700,IT,USIABP,Daniels,North
2018-04-21T07:00:28Z,1524294029,2018,7,0,111.292,111.292,89.89877,114.56112,-999.00,-999.00,-999.0,no,no,no,300234066830700,IT,USIABP,Daniels,North
2018-04-21T07:59:31Z,1524297571,2018,8,0,111.333,111.333,89.9041,114.73977,-999.00,-999.00,-999.0,no,no,no,300234066830700,IT,USIABP,Daniels,North
2018-04-21T09:00:00Z,1524301200,2018,9,0,111.375,111.375,89.91399,111.51391,-999.00,-999.00,-999.0,no,no,no,300234066830700,IT,USIABP,Daniels,North
2018-04-21T10:00:28Z,1524304829,2018,10,0,111.417,111.417,89.92944,112.99316,-999.00,-999.00,-999.0,no,no,no,300234066830700,IT,USIABP,Daniels,North
2018-04-21T10:59:31Z,1524308371,2018,11,0,111.458,111.458,89.94099,117.50492,-999.00,-999.00,-999.0,no,no,no,300234066830700,IT,USIABP,Daniels,North
2018-04-21T13:00:28Z,1524315629,2018,13,0,111.542,111.542,89.96012,121.61179,-999.00,-999.00,-999.0,no,no,no,300234066830700,IT,USIABP,Daniels,North
2018-04-21T13:59:31Z,1524319171,2018,14,0,111.583,111.583,89.96639,133.89871,-999.00,-999.00,-999.0,no,no,no,300234066830700,IT,USIABP,Daniels,North
2018-04-21T15:00:00Z,1524322800,2018,15,0,111.625,111.625,89.97867,133.11266,-999.00,-999.00,-999.0,no,no,no,300234066830700,IT,USIABP,Daniels,North
2018-04-21T16:00:28Z,1524326429,2018,16,0,111.667,111.667,89.99455,137.21736,-999.00,-999.00,-999.0,no,no,no,300234066830700,IT,USIABP,Daniels,North
2018-04-21T16:59:31Z,1524329971,2018,17,0,111.708,111.708,89.99895,-179.39026,-999.00,-999.00,-999.0,no,no,no,300234066830700,IT,USIABP,Daniels,North
2018-04-21T19:00:28Z,1524337229,2018,19,0,111.792,111.792,89.99764,-86.40066,-999.00,-999.00,-999.0,no,no,no,300234066830700,IT,USIABP,Daniels,North
2018-04-21T19:59:31Z,1524340771,2018,20,0,111.833,111.833,89.99626,-88.93191,-999.00,-999.00,-999.0,no,no,no,300234066830700,IT,USIABP,Daniels,North
2018-04-21T21:00:00Z,1524344400,2018,21,0,111.875,111.875,89.99474,-89.86978,-999.00,-999.00,-999.0,no,no,no,300234066830700,IT,USIABP,Daniels,North
2018-04-21T22:00:28Z,1524348029,2018,22,0,111.917,111.917,89.99297,-89.20778,-999.00,-999.00,-999.0,no,no,no,300234066830700,IT,USIABP,Daniels,North
2018-04-21T22:59:31Z,1524351571,2018,23,0,111.958,111.958,89.99097,-87.55592,-999.00,-999.00,-999.0,no,no,no,300234066830700,IT,USIABP,Daniels,North
2018-04-22T01:00:28Z,1524358829,2018,1,0,112.042,112.042,89.98621,-86.08849,-999.00,-999.00,-999.0,no,no,no,300234066830700,IT,USIABP,Daniels,North
2018-04-22T01:59:31Z,1524362371,2018,2,0,112.083,112.083,89.98366,-86.07096,-999.00,-999.00,-999.0,no,no,no,300234066830700,IT,USIABP,Daniels,North
2018-04-22T04:00:28Z,1524369629,2018,4,0,112.167,112.167,89.97849,-86.82324,-999.00,-999.00,-999.0,no,no,no,300234066830700,IT,USIABP,Daniels,North
2018-04-22T04:59:31Z,1524373171,2018,5,0,112.208,112.208,89.97612,-87.1281,-999.00,-999.00,-999.0,no,no,no,300234066830700,IT,USIABP,Daniels,North
2018-04-22T07:00:28Z,1524380429,2018,7,0,112.292,112.292,89.97166,-87.74463,-999.00,-999.00,-999.0,no,no,no,300234066830700,IT,USIABP,Daniels,North
2018-04-22T07:59:31Z,1524383971,2018,8,0,112.333,112.333,89.96958,-87.70207,-999.00,-999.00,-999.0,no,no,no,300234066830700,IT,USIABP,Daniels,North
2018-04-22T10:00:28Z,1524391229,2018,10,0,112.417,112.417,89.96541,-86.7682,-999.00,-999.00,-999.0,no,no,no,300234066830700,IT,USIABP,Daniels,North
2018-04-22T10:59:31Z,1524394771,2018,11,0,112.458,112.458,89.96342,-85.78635,-999.00,-999.00,-999.0,no,no,no,300234066830700,IT,USIABP,Daniels,North
2018-04-22T13:00:28Z,1524402029,2018,13,0,112.542,112.542,89.95934,-82.97741,-999.00,-999.00,-999.0,no,no,no,300234066830700,IT,USIABP,Daniels,North
2018-04-22T13:59:31Z,1524405571,2018,14,0,112.583,112.583,89.95737,-81.32706,-999.00,-999.00,-999.0,no,no,no,300234066830700,IT,USIABP,Daniels,North
2018-04-22T16:00:28Z,1524412829,2018,16,0,112.667,112.667,89.95361,-78.45081,-999.00,-999.00,-999.0,no,no,no,300234066830700,IT,USIABP,Daniels,North
2018-04-22T16:59:31Z,1524416371,2018,17,0,112.708,112.708,89.9518,-77.2182,-999.00,-999.00,-999.0,no,no,no,300234066830700,IT,USIABP,Daniels,North
2018-04-22T19:00:28Z,1524423629,2018,19,0,112.792,112.792,89.94878,-74.97764,-999.00,-999.00,-999.0,no,no,no,300234066830700,IT,USIABP,Daniels,North
2018-04-22T19:59:31Z,1524427171,2018,20,0,112.833,112.833,89.94754,-73.86982,-999.00,-999.00,-999.0,no,no,no,300234066830700,IT,USIABP,Daniels,North
2018-04-22T21:00:00Z,1524430800,2018,21,0,112.875,112.875,89.9463,-72.66415,-999.00,-999.00,-999.0,no,no,no,300234066830700,IT,USIABP,Daniels,North
2018-04-22T22:00:28Z,1524434429,2018,22,0,112.917,112.917,89.94491,-71.36388,-999.00,-999.00,-999.0,no,no,no,300234066830700,IT,USIABP,Daniels,North
2018-04-22T22:59:31Z,1524437971,2018,23,0,112.958,112.958,89.94334,-70.0283,-999.00,-999.00,-999.0,no,no,no,300234066830700,IT,USIABP,Daniels,North
2018-04-23T01:00:28Z,1524445229,2018,1,0,113.042,113.042,89.93977,-67.47357,-999.00,-999.00,-999.0,no,no,no,300234066830700,IT,USIABP,Daniels,North
2018-04-23T01:59:31Z,1524448771,2018,2,0,113.083,113.083,89.93806,-66.47588,-999.00,-999.00,-999.0,no,no,no,300234066830700,IT,USIABP,Daniels,North
2018-04-23T04:00:28Z,1524456029,2018,4,0,113.167,113.167,89.93527,-64.74847,-999.00,-999.00,-999.0,no,no,no,300234066830700,IT,USIABP,Daniels,North
2018-04-23T04:59:31Z,1524459571,2018,5,0,113.208,113.208,89.93403,-63.83754,-999.00,-999.00,-999.0,no,no,no,300234066830700,IT,USIABP,Daniels,North
2018-04-23T07:00:28Z,1524466829,2018,7,0,113.292,113.292,89.93212,-61.90402,-999.00,-999.00,-999.0,no,no,no,300234066830700,IT,USIABP,Daniels,North
2018-04-23T07:59:31Z,1524470371,2018,8,0,113.333,113.333,89.93166,-60.8629,-999.00,-999.00,-999.0,no,no,no,300234066830700,IT,USIABP,Daniels,North
2018-04-23T10:00:28Z,1524477629,2018,10,0,113.417,113.417,89.92978,-58.2385,-999.00,-999.00,-999.0,no,no,no,300234066830700,IT,USIABP,Daniels,North
2018-04-23T10:59:31Z,1524481171,2018,11,0,113.458,113.458,89.92869,-56.88156,-999.00,-999.00,-999.0,no,no,no,300234066830700,IT,USIABP,Daniels,North
2018-04-23T12:00:00Z,1524484800,2018,12,0,113.5,113.5,89.92738,-55.47291,-999.00,-999.00,-999.0,no,no,no,300234066830700,IT,USIABP,Daniels,North
2018-04-23T13:00:28Z,1524488429,2018,13,0,113.542,113.542,89.92609,-54.18322,-999.00,-999.00,-999.0,no,no,no,300234066830700,IT,USIABP,Daniels,North